Home > Weather > Coimbra > Past weeks

Flag for Portugal Past Weather in Coimbra, Portugal — Yesterday and Last 2 Weeks

Now
75 °F

Passing clouds.


Feels Like: 77 °F
Forecast: 61 / 80 °F
Wind: 6 mph from West

Location: Porto / Pedras Rubras

Current Time: Jul 29, 2016 at 3:10:22 PM

Latest Report: Jul 29, 2016 at 2:30 PM


Visibility: N/A

Pressure: 29.95 "Hg

Humidity: 65%

Dew Point: 63 °F

Location of CoimbraLocation

Past Weather in Coimbra — Graph

°F

Coimbra Temperature Yesterday

Maximum temperature yesterday: 82 °F (at 3:00 PM)
Minimum temperature yesterday: 61 °F (at 4:30 AM)
Average temperature yesterday: 70 °F

High & Low Weather Summary for the Past Weeks

 TemperatureHumidityPressure
High93 °F (Jul 15, 2:30 PM)100% (Jul 17, 5:30 AM)30.12 "Hg (Jul 17, 5:30 AM)
Low55 °F (Jul 20, 6:00 AM)16% (Jul 15, 3:00 PM)29.92 "Hg (Jul 18, 5:00 AM)
Average70 °F72%30.03 "Hg
* Reported Jul 14 2:00 PM — Jul 29 2:00 PM, Coimbra, Weather by CustomWeather, © 2016

Note: Actual official high and low records may vary slightly from our data, if they occured in-between our weather recording intervals... More about our weather records

Advertising

Coimbra Weather History for the Previous 24 Hours

Scroll right to see more
 ConditionsComfort  
Time TempWeatherWind HumidityBarometerVisibility
2:00 PM
Fri, Jul 29
75 °FPassing clouds.7 mph65%29.95 "HgN/A
1:30 PM75 °FSunny.9 mph61%29.95 "Hg10 mi
1:00 PM75 °FPassing clouds.6 mph65%29.95 "HgN/A
12:30 PM73 °FSunny.5 mph69%29.95 "Hg10 mi
12:00 PM73 °FPassing clouds.6 mph69%29.95 "HgN/A
11:30 AM72 °FPassing clouds.6 mph73%29.95 "HgN/A
11:00 AM72 °FSunny.7 mph78%29.95 "Hg10 mi
10:30 AM72 °FPassing clouds.6 mph73%29.95 "HgN/A
10:00 AM73 °FPassing clouds.3 mph74%29.95 "HgN/A
9:30 AM72 °FPassing clouds.5 mph78%29.95 "HgN/A
9:00 AM72 °FPassing clouds.5 mph78%29.95 "HgN/A
8:30 AM68 °FClear.3 mph83%29.95 "Hg6 mi
8:00 AM66 °FClear.No wind88%29.92 "Hg6 mi
7:30 AM63 °FClear.1 mph94%29.92 "Hg6 mi
7:00 AM61 °FClear.5 mph94%29.92 "Hg6 mi
6:30 AM59 °FClear.No wind100%29.92 "Hg6 mi
6:00 AM59 °FClear.No wind100%29.92 "Hg10 mi
5:30 AM61 °FClear.No wind94%29.92 "Hg10 mi
5:00 AM61 °FClear.2 mph94%29.92 "Hg10 mi
4:30 AM63 °FClear.No wind94%29.92 "Hg10 mi
4:00 AM61 °FClear.2 mph94%29.92 "Hg10 mi
3:30 AM61 °FClear.3 mph94%29.92 "Hg10 mi
3:00 AM63 °FClear.No wind88%29.92 "Hg10 mi
2:30 AM63 °FClear.1 mph88%29.92 "Hg10 mi
2:00 AM63 °FClear.No wind88%29.95 "Hg10 mi
1:30 AM63 °FClear.5 mph88%29.95 "Hg10 mi
1:00 AM63 °FClear.5 mph88%29.95 "Hg10 mi
12:30 AM63 °FClear.No wind88%29.95 "Hg10 mi
12:00 AM64 °FClear.5 mph83%29.98 "Hg10 mi
11:30 PM
Thu, Jul 28
63 °FClear.3 mph88%29.95 "Hg10 mi
11:00 PM64 °FClear.5 mph83%29.95 "Hg10 mi
10:30 PM66 °FClear.5 mph78%29.95 "Hg10 mi
10:00 PM66 °FClear.5 mph78%29.95 "Hg10 mi
9:30 PM64 °FSunny.No wind83%29.95 "Hg10 mi
9:00 PM68 °FSunny.1 mph73%29.95 "Hg10 mi
8:30 PM72 °FSunny.2 mph69%29.95 "Hg10 mi
8:00 PM73 °FSunny.1 mph65%29.95 "Hg10 mi
7:30 PM77 °FSunny.2 mph61%29.95 "Hg10 mi
7:00 PM77 °FSunny.5 mph61%29.95 "Hg10 mi
6:30 PM81 °FPassing clouds.3 mph54%29.95 "HgN/A
6:00 PM81 °FPassing clouds.3 mph54%29.95 "HgN/A
5:30 PM81 °FPassing clouds.5 mph54%29.95 "HgN/A
5:00 PM82 °FPassing clouds.5 mph48%29.98 "HgN/A
4:30 PM81 °FPassing clouds.5 mph54%29.98 "HgN/A
4:00 PM82 °FPassing clouds.6 mph45%29.98 "HgN/A
3:30 PM82 °FSunny.5 mph51%29.98 "Hg10 mi
3:00 PM82 °FPassing clouds.5 mph48%29.98 "HgN/A
Weather by CustomWeather, © 2016

See weather overviewHow to use our weather pages